Newport, AR

10:43 AM CDT on April 30, 2017 (GMT -0500)
Newport

Weather History for KM19 - January, 2013

Change the Weather History Date:

Thursday, January 24, 2013

  Actual Average (KBVX) Record (KBVX)
Temperature  
Mean Temperature 34 °F -  
Max Temperature 37 °F 51 °F 76 °F (1972)
Min Temperature 30 °F 29 °F -7 °F (1963)
Degree Days  
Heating Degree Days 32    
Moisture  
Dew Point 23 °F    
Average Humidity 69    
Maximum Humidity 93    
Minimum Humidity 60    
Precipitation  
Precipitation 0.00 in - - ()
Sea Level Pressure  
Sea Level Pressure 30.37 in    
Wind  
Wind Speed 13 mph (NE)    
Max Wind Speed 21 mph    
Max Gust Speed 50 mph    
Visibility 10 miles    
Events Snow    
Averages and records for this station are not official NWS values.
T = Trace of Precipitation, MM = Missing Value Source: NWS Daily Summary

Daily Weather History Graph

Daily Weather History Graph

Search for Another Location

Airport or City:

Trip Planner

Search our weather history database for the weather conditions in past years. The results will help you decide how hot, cold, wet, or windy it might be!

Date:

Astronomy

Jan. 24, 2013 Rise Set
Actual Time 7:09 AM CST 5:24 PM CST
Civil Twilight 6:42 AM CST 5:51 PM CST
Nautical Twilight 6:11 AM CST 6:22 PM CST
Astronomical Twilight 5:41 AM CST 6:52 PM CST
Moon 3:27 PM CST (1/24) 5:06 AM CST (1/24)
Length of Visible Light 11h 09m
Length of Day
10h 14m
Waxing Gibbous, 94% of the Moon is Illuminated
Jan 24
Waxing Gibbous
Jan 26
Full
Feb 3
Last Quarter
Feb 10
New
Feb 17
First Quarter

Hourly Weather History & Observations

Time (CST) Temp. Windchill Dew Point Humidity Pressure Visibility Wind Dir Wind Speed Gust Speed Precip Events Conditions
12:56 AM 36.9 °F 30.7 °F 34.9 °F 93% 30.27 in 10.0 mi North 8.1 mph - N/A   Overcast
1:56 AM 37.9 °F 30.5 °F 32.0 °F 79% 30.28 in 10.0 mi North 11.5 mph - N/A   Overcast
2:56 AM 37.9 °F 29.2 °F 30.0 °F 73% 30.32 in 10.0 mi NNE 15.0 mph - N/A   Overcast
3:56 AM 34.9 °F 26.2 °F 29.1 °F 79% 30.33 in 10.0 mi NE 12.7 mph - N/A   Mostly Cloudy
4:56 AM 34.9 °F 25.3 °F 28.0 °F 76% 30.37 in 10.0 mi NNE 15.0 mph - N/A   Overcast
5:56 AM 34.0 °F 24.2 °F 26.1 °F 73% 30.40 in 10.0 mi NNE 15.0 mph - N/A   Overcast
6:56 AM 32.9 °F 21.0 °F 22.1 °F 65% 30.43 in 10.0 mi NNE 20.7 mph - N/A   Overcast
7:56 AM 32.0 °F 20.8 °F 24.1 °F 73% 30.45 in 10.0 mi NE 17.3 mph - N/A   Overcast
9:56 AM 31.1 °F 19.7 °F 21.0 °F 66% 30.50 in 10.0 mi NE 17.3 mph - N/A   Overcast
10:56 AM 30.0 °F 19.1 °F 18.1 °F 61% 30.51 in 10.0 mi ENE 15.0 mph 49.5 mph N/A   Overcast
11:56 AM 31.1 °F 19.7 °F 21.0 °F 66% 30.48 in 10.0 mi NE 17.3 mph - N/A   Overcast
12:56 PM 31.1 °F 20.1 °F 21.0 °F 66% 30.45 in 10.0 mi NE 16.1 mph - N/A   Overcast
1:56 PM 31.1 °F 18.9 °F 20.1 °F 64% 30.40 in 10.0 mi ENE 19.6 mph - N/A   Overcast
2:11 PM 30.2 °F 17.8 °F 17.6 °F 60% 30.41 in 1.8 mi ENE 19.6 mph - 0.00 in Snow Light Snow
2:20 PM 30.2 °F 18.5 °F 17.6 °F 60% 30.41 in 10.0 mi NE 17.3 mph - 0.00 in   Overcast
2:56 PM 30.0 °F 18.7 °F 18.1 °F 61% 30.41 in 10.0 mi NE 16.1 mph 23.0 mph 0.00 in   Overcast
3:56 PM 31.1 °F 20.9 °F 19.0 °F 61% 30.39 in 10.0 mi ENE 13.8 mph - N/A   Overcast
4:56 PM 31.1 °F 20.9 °F 19.0 °F 61% 30.36 in 10.0 mi ENE 13.8 mph - N/A   Overcast
5:56 PM 31.1 °F 23.1 °F 20.1 °F 64% 30.37 in 10.0 mi NE 9.2 mph - N/A   Overcast
6:56 PM 31.1 °F 23.1 °F 21.0 °F 66% 30.36 in 10.0 mi NE 9.2 mph - N/A   Overcast
7:56 PM 32.0 °F 24.8 °F 22.1 °F 67% 30.33 in 10.0 mi NE 8.1 mph - N/A   Overcast
8:08 PM 32.0 °F 24.8 °F 23.0 °F 69% 30.32 in 10.0 mi NE 8.1 mph - N/A   Overcast
8:56 PM 32.0 °F 23.6 °F 23.0 °F 69% 30.27 in 10.0 mi ENE 10.4 mph - N/A   Overcast
9:56 PM 32.0 °F 24.2 °F 23.0 °F 69% 30.29 in 10.0 mi NNE 9.2 mph - N/A   Overcast
10:56 PM 32.0 °F 25.6 °F 25.2 °F 76% 30.28 in 10.0 mi North 6.9 mph - N/A   Overcast
11:56 PM 32.0 °F 26.4 °F 26.1 °F 79% 30.25 in 10.0 mi NNE 5.8 mph - N/A   Overcast